When you browse on this site, cookies collect data to enhance your experience and personalize the content and advertising you see.
Visit our Privacy Policy to learn more. By continuing to use the site, you agree to this use of cookies and data.
  • In Hungary
  • List of Countries
  • For 7 days
  • Water Temperature
  • Satellite Maps
  • Weather Map
  • News
  • Weather Widgets
  • user-avatar
    Login

    Hourly Weather Skandawa

    Today, 16 January, Wednesday

    Time Temperature Precipitation Wind Pressure Humidity
    00:00 -1°C° 0.6 mm 1 mps 741 mmHg 96%
    01:00 -2°C° 0 mm 1 mps 742 mmHg 96%
    02:00 -2°C° 0 mm 1 mps 743 mmHg 96%
    03:00 -2°C° 0 mm 1 mps 743 mmHg 95%
    04:00 -4°C° 0 mm 2 mps 744 mmHg 94%
    05:00 -4°C° 0 mm 2 mps 745 mmHg 93%
    06:00 -4°C° 0 mm 2 mps 745 mmHg 92%
    07:00 -5°C° 0 mm 3 mps 746 mmHg 91%
    08:00 -4°C° 0 mm 3 mps 747 mmHg 91%
    09:00 -2°C° 0 mm 3 mps 747 mmHg 91%
    10:00 -1°C° 0 mm 3 mps 747 mmHg 91%
    11:00 -1°C° 0 mm 3 mps 747 mmHg 93%
    12:00 0°C° 0 mm 3 mps 747 mmHg 96%
    13:00 0°C° 0 mm 3 mps 747 mmHg 98%
    14:00 0°C° 0.1 mm 3 mps 747 mmHg 97%
    15:00 0°C° 0.1 mm 3 mps 747 mmHg 97%
    16:00 -1°C° 0.1 mm 4 mps 747 mmHg 96%
    17:00 0°C° 0 mm 4 mps 746 mmHg 96%
    18:00 0°C° 0 mm 5 mps 746 mmHg 95%
    19:00 0°C° 0 mm 5 mps 746 mmHg 95%
    20:00 0°C° 0 mm 5 mps 745 mmHg 95%
    21:00 +1°C° 0 mm 6 mps 745 mmHg 96%
    22:00 +1°C° 0 mm 6 mps 745 mmHg 96%
    23:00 +1°C° 0.1 mm 6 mps 745 mmHg 96%

    Tomorrow, 17 January, Thursday

    Time Temperature Precipitation Wind Pressure Humidity
    00:00 +1°C° 0.1 mm 6 mps 744 mmHg 95%
    01:00 +1°C° 0.1 mm 6 mps 744 mmHg 95%
    02:00 +1°C° 0.3 mm 6 mps 743 mmHg 94%
    03:00 0°C° 0.3 mm 7 mps 743 mmHg 93%
    04:00 -1°C° 0.3 mm 7 mps 742 mmHg 92%
    05:00 -1°C° 0.3 mm 7 mps 742 mmHg 91%
    06:00 -1°C° 0.3 mm 7 mps 741 mmHg 90%
    07:00 -1°C° 0.3 mm 7 mps 741 mmHg 89%
    08:00 -1°C° 0.2 mm 7 mps 741 mmHg 88%
    09:00 -1°C° 0.2 mm 8 mps 740 mmHg 87%
    10:00 -1°C° 0.2 mm 8 mps 740 mmHg 87%
    11:00 -1°C° 0.2 mm 8 mps 740 mmHg 87%
    12:00 0°C° 0.2 mm 7 mps 741 mmHg 88%
    13:00 0°C° 0.2 mm 7 mps 741 mmHg 88%
    14:00 0°C° 0 mm 7 mps 741 mmHg 88%
    15:00 -1°C° 0 mm 6 mps 741 mmHg 88%
    16:00 -1°C° 0 mm 6 mps 742 mmHg 87%
    17:00 -1°C° 0 mm 6 mps 742 mmHg 86%
    18:00 -1°C° 0 mm 6 mps 742 mmHg 84%
    19:00 -1°C° 0 mm 6 mps 742 mmHg 82%
    20:00 -1°C° 0 mm 6 mps 742 mmHg 82%
    21:00 -1°C° 0 mm 6 mps 742 mmHg 83%
    22:00 -2°C° 0 mm 6 mps 742 mmHg 83%
    23:00 -1°C° 0 mm 5 mps 743 mmHg 84%

    Day after tomorrow, 18 January, Friday

    Time Temperature Precipitation Wind Pressure Humidity
    00:00 -1°C° 0 mm 5 mps 743 mmHg 86%
    01:00 -1°C° 0 mm 5 mps 743 mmHg 87%
    02:00 -1°C° 0.2 mm 4 mps 743 mmHg 88%
    03:00 -1°C° 0.2 mm 4 mps 743 mmHg 89%
    04:00 -1°C° 0.2 mm 4 mps 743 mmHg 89%
    05:00 -1°C° 0.4 mm 4 mps 743 mmHg 90%
    06:00 -2°C° 0.4 mm 5 mps 744 mmHg 91%
    07:00 -2°C° 0.4 mm 5 mps 744 mmHg 91%
    08:00 -3°C° 0.8 mm 4 mps 745 mmHg 88%
    09:00 -3°C° 0.8 mm 4 mps 746 mmHg 85%
    10:00 -4°C° 0.8 mm 4 mps 747 mmHg 81%
    11:00 -4°C° 0.1 mm 4 mps 748 mmHg 81%
    12:00 -4°C° 0.1 mm 5 mps 750 mmHg 80%
    13:00 -2°C° 0.1 mm 5 mps 751 mmHg 80%
    14:00 -4°C° 0.1 mm 5 mps 752 mmHg 81%
    15:00 -3°C° 0.1 mm 4 mps 752 mmHg 82%
    16:00 -4°C° 0.1 mm 4 mps 753 mmHg 84%
    17:00 -4°C° 0.1 mm 4 mps 754 mmHg 83%
    18:00 -4°C° 0.1 mm 4 mps 754 mmHg 82%
    19:00 -5°C° 0.1 mm 4 mps 755 mmHg 81%
    20:00 -5°C° 0 mm 4 mps 755 mmHg 81%
    21:00 -5°C° 0 mm 4 mps 756 mmHg 81%
    22:00 -5°C° 0 mm 4 mps 756 mmHg 81%
    23:00 -5°C° 0 mm 4 mps 757 mmHg 84%

    19 January, Saturday

    Time Temperature Precipitation Wind Pressure Humidity
    00:00 -5°C° 0 mm 4 mps 757 mmHg 86%
    01:00 -5°C° 0 mm 4 mps 757 mmHg 88%
    02:00 -5°C° 0 mm 4 mps 757 mmHg 90%
    03:00 -5°C° 0 mm 4 mps 757 mmHg 91%
    04:00 -5°C° 0 mm 4 mps 757 mmHg 92%
    05:00 -5°C° 0 mm 4 mps 757 mmHg 92%
    06:00 -5°C° 0 mm 4 mps 757 mmHg 92%
    07:00 -5°C° 0 mm 4 mps 758 mmHg 92%
    08:00 -6°C° 0 mm 5 mps 758 mmHg 91%
    09:00 -5°C° 0 mm 5 mps 758 mmHg 90%
    10:00 -5°C° 0 mm 5 mps 758 mmHg 89%
    11:00 -4°C° 0 mm 5 mps 758 mmHg 88%
    12:00 -2°C° 0 mm 5 mps 758 mmHg 88%
    13:00 -2°C° 0 mm 5 mps 758 mmHg 87%
    14:00 -2°C° 0 mm 5 mps 758 mmHg 88%
    15:00 -2°C° 0 mm 4 mps 758 mmHg 88%
    16:00 -2°C° 0 mm 4 mps 758 mmHg 89%
    17:00 -3°C° 0.1 mm 4 mps 758 mmHg 90%
    18:00 -3°C° 0.1 mm 4 mps 758 mmHg 91%
    19:00 -2°C° 0.1 mm 3 mps 759 mmHg 92%
    20:00 -4°C° 0 mm 3 mps 759 mmHg 92%
    21:00 -4°C° 0 mm 3 mps 759 mmHg 92%
    22:00 -4°C° 0 mm 3 mps 759 mmHg 92%
    23:00 -4°C° 0 mm 3 mps 759 mmHg 93%

    20 January, Sunday

    Time Temperature Precipitation Wind Pressure Humidity
    00:00 -4°C° 0 mm 2 mps 759 mmHg 93%
    01:00 -4°C° 0 mm 2 mps 759 mmHg 93%
    02:00 -4°C° 0 mm 2 mps 758 mmHg 93%
    03:00 -4°C° 0 mm 2 mps 758 mmHg 93%
    04:00 -5°C° 0 mm 3 mps 758 mmHg 93%
    05:00 -5°C° 0 mm 3 mps 758 mmHg 92%
    06:00 -6°C° 0 mm 3 mps 758 mmHg 92%
    07:00 -6°C° 0 mm 3 mps 758 mmHg 92%
    08:00 -5°C° 0 mm 3 mps 758 mmHg 92%
    09:00 -5°C° 0 mm 3 mps 758 mmHg 91%
    10:00 -4°C° 0 mm 3 mps 758 mmHg 90%
    11:00 -4°C° 0 mm 3 mps 758 mmHg 90%
    12:00 -2°C° 0 mm 3 mps 757 mmHg 90%
    13:00 -1°C° 0 mm 3 mps 757 mmHg 90%
    14:00 -2°C° 0 mm 3 mps 757 mmHg 91%
    15:00 -2°C° 0 mm 3 mps 757 mmHg 92%
    16:00 -4°C° 0 mm 3 mps 757 mmHg 92%
    17:00 -4°C° 0.1 mm 4 mps 756 mmHg 92%
    18:00 -4°C° 0.1 mm 4 mps 756 mmHg 91%
    19:00 -5°C° 0.1 mm 5 mps 756 mmHg 91%
    20:00 -4°C° 0.5 mm 4 mps 756 mmHg 91%
    21:00 -3°C° 0.5 mm 4 mps 756 mmHg 91%
    22:00 -3°C° 0.5 mm 4 mps 756 mmHg 91%
    23:00 -4°C° 0.1 mm 4 mps 757 mmHg 89%

    21 January, Monday

    Time Temperature Precipitation Wind Pressure Humidity
    00:00 -5°C° 0.1 mm 4 mps 757 mmHg 87%
    01:00 -7°C° 0.1 mm 4 mps 757 mmHg 85%
    02:00 -7°C° 0 mm 4 mps 757 mmHg 85%
    03:00 -7°C° 0 mm 4 mps 758 mmHg 84%
    04:00 -7°C° 0 mm 4 mps 758 mmHg 84%
    05:00 -7°C° 0 mm 4 mps 759 mmHg 85%
    06:00 -7°C° 0 mm 3 mps 759 mmHg 85%
    07:00 -6°C° 0 mm 2 mps 760 mmHg 86%
    08:00 -6°C° 0 mm 2 mps 761 mmHg 86%
    09:00 -5°C° 0 mm 2 mps 761 mmHg 86%
    10:00 -5°C° 0 mm 2 mps 762 mmHg 87%
    11:00 -4°C° 0 mm 2 mps 762 mmHg 86%
    12:00 -3°C° 0 mm 2 mps 763 mmHg 86%
    13:00 -2°C° 0 mm 2 mps 763 mmHg 85%
    14:00 -3°C° 0 mm 2 mps 763 mmHg 86%
    15:00 -5°C° 0 mm 3 mps 763 mmHg 86%
    16:00 -5°C° 0 mm 3 mps 763 mmHg 87%
    17:00 -6°C° 0 mm 3 mps 763 mmHg 87%
    18:00 -6°C° 0 mm 3 mps 763 mmHg 86%
    19:00 -6°C° 0 mm 3 mps 763 mmHg 86%
    20:00 -6°C° 0 mm 3 mps 764 mmHg 86%
    21:00 -5°C° 0 mm 3 mps 764 mmHg 86%
    22:00 -5°C° 0 mm 3 mps 764 mmHg 86%
    23:00 -6°C° 0 mm 3 mps 764 mmHg 87%
    Show more